GFSCGP_con_3kmhel_000.txt.gz
Helicity
168 -64 -201 30 83 74 65 84 77 150 242 305 248 191 117 98 51 21 10 38 124 205 171 159 139 109 76 57 78 74 91 56 77 48 43 37 35 24 11 6 16 36 45 63
235 -158 -67 54 29 6 -2 -43 51 106 185 276 235 207 94 153 60 57 63 79 143 184 181 172 172 179 147 89 73 46 48 55 71 75 70 74 76 68 84 83 76 67 63 58
101 79 27 25 -24 -24 -21 -22 15 192 229 212 281 143 147 82 69 50 98 158 204 274 192 160 147 151 104 63 39 16 27 58 50 60 67 63 67 75 80 61 101 85 62 42
186 68 30 8 -18 25 28 77 8 149 266 217 246 165 80 141 130 122 201 214 200 267 249 187 134 88 51 26 17 38 36 35 16 47 57 54 53 76 106 136 134 101 68 42
180 17 8 34 14 58 79 100 82 127 149 310 177 200 120 206 129 205 259 242 253 334 354 264 189 157 54 62 42 44 24 15 -1 32 42 67 49 55 100 156 161 102 60 58
117 90 16 50 69 48 112 60 100 107 217 211 155 164 187 234 163 169 197 256 291 282 406 337 232 189 135 78 69 52 41 17 26 57 81 129 97 81 108 117 109 95 92 88
123 91 69 56 75 43 68 70 87 38 113 128 119 151 56 134 135 156 212 252 265 348 447 453 302 264 241 175 140 99 85 68 93 129 111 81 59 41 47 37 66 107 139 107
119 94 10 14 29 48 38 84 96 46 8 28 62 62 20 220 154 115 126 265 208 363 495 561 426 398 375 279 215 189 167 139 156 153 108 74 80 51 37 16 18 55 87 120
137 120 50 9 27 26 33 104 80 123 113 30 12 66 39 155 115 117 177 180 239 348 415 529 501 458 426 361 292 294 277 244 206 178 160 134 119 98 68 57 66 60 73 123
98 131 27 10 19 62 139 121 177 129 84 65 42 45 100 168 106 73 74 160 259 279 381 433 460 453 446 457 413 332 349 341 275 250 240 191 169 139 105 90 71 74 55 70
79 94 33 -37 -41 49 219 207 177 142 151 74 34 -8 58 73 95 153 53 36 252 344 383 381 388 422 453 424 433 411 392 377 343 345 312 240 214 138 110 83 73 58 50 57
107 80 34 34 55 55 182 90 161 205 206 166 80 46 54 51 70 113 2 7 119 273 324 346 324 419 507 502 541 512 455 404 387 392 341 271 246 149 111 105 89 76 68 77
77 120 69 54 36 47 262 207 220 222 210 164 145 89 66 30 78 57 39 -17 -11 117 212 249 309 403 553 552 570 564 500 455 431 414 372 266 253 202 124 106 97 88 73 46
197 190 46 54 45 61 135 211 230 258 245 139 75 86 110 86 62 53 75 86 56 49 148 243 318 397 500 572 579 611 545 536 511 408 381 298 287 244 158 119 108 88 60 42
363 164 131 55 62 61 115 209 221 242 159 199 114 117 99 123 231 174 95 113 166 86 156 188 244 328 397 407 479 545 493 595 540 434 385 320 246 245 163 106 97 68 43 49
309 120 159 69 21 63 149 178 205 168 227 212 174 135 106 131 233 228 201 164 161 102 168 119 176 311 392 435 460 604 613 544 627 479 379 277 226 195 140 83 71 62 41 55
174 203 230 115 109 152 187 150 103 98 27 24 142 96 193 263 311 318 271 156 161 246 191 100 214 269 278 343 451 550 563 668 601 536 426 262 199 175 109 82 80 58 57 98
104 205 205 219 228 156 145 180 9 116 156 134 75 165 185 302 316 319 248 270 192 149 101 52 72 160 279 326 381 467 646 719 604 469 290 234 205 110 109 100 76 51 104 130
123 223 193 233 235 177 196 226 144 163 198 158 76 183 267 255 410 373 195 149 119 92 88 51 46 75 153 269 420 541 647 696 546 441 202 250 155 146 143 107 98 99 151 171
88 131 259 291 293 257 313 315 192 94 177 186 198 297 378 404 479 335 185 113 126 108 90 48 54 88 180 267 437 534 596 568 525 415 234 201 127 116 151 153 147 139 194 234
65 163 135 357 397 303 347 321 146 200 154 85 94 217 223 229 202 235 186 170 102 75 56 42 131 138 219 336 415 442 504 442 466 275 163 80 112 158 168 188 185 195 225 329
58 89 138 201 221 330 428 265 306 203 245 285 282 263 233 286 397 352 255 139 71 97 83 145 201 184 287 365 425 428 384 358 360 266 142 73 33 -100 -121 220 215 237 329 331
212 98 -10 137 115 316 408 268 350 373 399 427 411 345 240 207 195 165 57 57 76 104 67 84 221 438 458 469 506 534 391 343 389 387 286 267 116 94 117 72 227 321 297 220
91 95 150 193 162 297 249 334 295 247 284 390 410 434 450 314 152 138 155 74 22 36 52 146 454 562 638 535 515 436 300 378 392 392 333 225 371 242 -11 162 248 260 187 169
111 109 207 182 232 250 273 283 255 314 329 228 166 116 181 222 252 251 143 37 18 2 102 230 487 634 624 532 499 386 334 258 141 57 31 56 11 52 141 244 208 197 195 149
253 147 202 190 339 402 414 343 224 223 201 124 102 130 129 116 16 6 -7 31 27 4 141 386 493 523 461 312 281 373 447 332 268 238 108 53 111 188 197 236 247 325 252 206

GFSCGP_con_3kmhel_003.txt.gz
Helicity
66 -135 -198 -171 11 38 -28 -29 84 123 123 238 181 230 209 133 179 116 68 57 29 12 9 34 55 69 46 53 61 69 78 43 74 71 75 67 49 45 39 22 32 57 53 56
161 -183 -232 8 29 37 155 75 -55 36 185 299 222 172 179 125 114 118 80 43 50 33 28 63 91 101 100 84 57 68 80 74 68 68 80 85 93 71 68 83 86 63 68 66
175 130 -76 -25 27 3 95 6 68 33 225 271 252 167 161 40 9 28 54 63 66 113 75 54 83 124 98 91 102 98 82 42 27 63 50 37 47 53 61 80 100 103 103 97
198 187 -31 43 62 51 15 68 60 96 155 234 263 142 110 98 42 51 48 58 78 109 108 132 102 88 97 72 50 46 14 -12 -12 39 41 50 48 49 31 36 79 111 83 81
287 218 13 29 -35 29 34 64 63 82 106 311 285 262 41 202 83 61 162 92 76 135 145 135 158 150 99 81 37 -10 -30 -43 -36 8 21 22 7 13 8 5 90 98 71 68
152 237 141 -9 10 4 38 7 75 60 168 159 266 220 152 238 209 142 132 129 169 183 202 177 156 134 114 76 50 2 -19 -42 -25 -5 25 42 19 34 34 48 59 55 67 58
179 210 205 89 5 -2 30 74 85 86 151 115 157 213 60 148 223 194 256 219 276 288 256 263 227 182 136 114 91 57 34 -13 -11 11 42 61 71 100 95 81 78 71 77 83
187 94 96 128 54 -66 -1 90 120 139 149 124 164 218 51 131 164 196 178 253 321 357 299 345 321 304 219 164 165 158 101 43 48 52 57 90 122 108 89 97 73 78 80 92
201 119 138 44 41 -15 12 58 55 178 95 137 165 159 103 44 55 153 191 154 215 311 348 332 361 380 320 206 174 221 193 147 142 108 113 137 142 131 106 74 95 88 68 79
133 148 128 55 63 54 82 27 104 129 166 133 146 147 109 110 15 181 147 105 147 232 301 314 347 400 422 386 281 204 214 227 250 213 200 198 180 163 119 116 96 90 74 80
183 147 146 96 117 62 131 144 154 57 131 150 108 81 68 33 59 179 78 68 116 193 292 353 354 348 428 414 359 311 264 275 278 274 285 274 250 223 160 148 109 79 81 78
163 125 81 114 78 89 67 113 110 124 134 177 125 77 70 51 82 112 72 64 72 146 272 318 343 315 363 425 457 405 360 345 333 359 379 350 309 265 222 149 91 70 64 74
219 178 137 145 66 66 45 60 109 191 239 201 170 137 129 105 59 63 137 60 69 108 185 299 261 272 311 428 543 518 458 440 432 422 404 397 330 293 261 181 94 63 76 80
285 234 152 114 58 69 69 71 131 239 271 170 174 189 175 94 77 34 18 103 115 109 151 233 198 217 240 344 483 555 498 487 539 523 437 440 387 286 253 170 104 80 86 98
341 149 154 54 72 92 96 94 137 219 220 210 164 162 130 66 72 71 61 83 126 93 70 125 147 158 190 292 440 487 449 493 590 550 493 429 408 271 215 198 130 92 89 77
263 201 241 97 87 111 105 98 114 118 242 220 203 180 64 57 172 138 69 112 118 154 77 75 70 103 162 290 437 454 438 520 607 650 496 528 339 255 179 182 102 93 62 71
113 158 254 33 70 102 131 80 121 269 232 304 233 90 182 129 109 81 83 154 154 100 113 78 106 110 175 267 349 365 400 433 483 514 691 500 352 196 171 176 137 64 47 76
153 126 217 101 150 79 94 160 185 246 312 270 163 114 83 102 187 152 245 301 178 127 108 95 62 65 121 201 293 347 408 434 421 485 605 541 267 191 177 148 92 39 74 84
-43 65 192 177 159 154 259 313 265 175 264 222 70 128 81 74 320 323 285 245 215 143 149 92 39 22 57 139 228 358 451 463 393 472 668 544 191 157 153 124 59 43 101 120
-7 -66 115 206 213 200 395 331 378 327 269 165 94 70 82 110 166 287 327 219 137 122 117 100 34 50 39 57 189 388 478 504 393 401 436 330 212 144 95 76 54 44 151 125
51 43 134 171 313 222 352 271 318 328 251 283 236 209 299 349 259 339 227 235 170 139 102 108 43 22 54 89 193 339 436 383 377 351 330 203 217 222 148 110 139 35 -73 10
101 50 153 188 325 432 330 391 358 254 328 301 381 394 379 293 306 347 339 318 243 191 148 97 66 72 74 172 281 340 323 306 323 299 254 267 252 243 118 133 141 120 174 -74
86 54 56 143 183 195 449 547 387 370 452 453 424 400 378 449 425 378 366 306 274 365 229 71 9 -3 130 230 368 343 288 306 337 316 302 295 254 177 -13 37 111 74 398 203
282 40 18 156 176 253 267 314 288 229 278 322 347 380 414 459 506 388 328 279 208 106 71 49 85 111 167 329 343 370 333 373 380 339 340 254 175 64 117 273 88 140 159 135
164 164 147 230 249 230 386 360 218 193 174 181 142 117 164 139 165 132 76 30 -1 -28 -57 55 79 114 227 397 425 411 391 410 309 199 168 201 206 191 54 67 102 161 150 107
202 207 310 241 237 267 368 425 294 250 223 199 195 146 200 225 214 190 178 176 125 166 89 66 28 144 254 358 328 282 218 270 308 365 450 360 149 140 260 231 165 253 202 135

GFSCGP_con_3kmhel_006.txt.gz
Helicity
59 1 -32 -70 98 74 79 53 161 -35 67 96 91 79 168 155 171 212 157 66 65 66 26 33 17 46 48 28 27 43 41 39 45 61 59 42 43 37 34 40 41 57 63 64
125 -134 -64 1 106 91 67 80 71 62 30 92 71 51 119 137 133 158 137 87 90 40 24 25 14 31 42 64 59 64 62 65 94 105 97 82 94 75 69 71 74 66 62 79
84 81 49 100 72 128 100 78 56 72 190 215 189 110 133 81 48 41 11 19 36 53 45 19 27 51 51 58 77 85 97 86 64 74 69 50 33 21 40 62 58 60 77 80
106 89 3 82 51 117 147 80 107 113 137 66 218 40 69 168 120 94 30 74 4 -6 2 26 25 10 35 51 41 67 68 29 7 40 55 75 67 47 5 9 13 42 56 69
229 124 24 79 52 66 107 143 148 112 122 151 164 161 75 151 116 122 127 123 41 39 34 12 34 51 56 32 29 17 -3 -45 -22 -11 14 40 4 -15 -42 -27 -14 30 46 53
156 134 18 7 54 41 64 149 215 177 151 80 14 175 72 201 218 182 191 137 112 72 65 45 65 78 40 54 45 17 -20 -76 -36 -30 -14 23 12 -7 0 10 24 56 30 23
235 227 153 67 71 95 166 146 126 116 153 14 85 171 96 92 170 206 312 340 237 146 129 106 105 78 73 75 53 27 -2 -63 -23 0 1 32 46 47 46 65 103 104 76 55
240 203 202 195 40 38 91 113 91 87 89 65 131 75 34 144 57 21 127 231 251 228 208 176 161 142 111 97 53 45 21 -4 24 51 23 39 55 54 48 72 85 102 82 61
148 184 267 175 99 72 112 67 65 131 93 91 87 76 95 41 10 52 112 204 205 232 272 263 210 212 167 128 120 118 83 48 85 102 62 78 73 82 90 96 99 92 74 73
90 96 128 204 177 130 79 66 129 218 151 107 137 146 95 70 -8 89 33 209 159 180 204 254 266 264 244 206 179 143 119 126 150 168 160 164 147 142 135 150 110 102 90 89
120 108 136 120 176 129 216 175 154 102 171 146 128 135 86 45 41 58 57 155 166 158 174 281 295 301 312 277 239 216 182 180 166 191 228 257 256 190 214 188 146 129 126 118
63 86 115 83 117 123 133 124 123 158 173 153 141 148 49 49 115 69 38 67 78 119 144 256 284 305 273 236 245 265 248 236 250 222 248 289 263 305 240 203 179 146 141 145
83 103 133 168 71 121 147 201 227 182 198 179 169 131 139 115 56 51 43 58 95 71 70 151 180 200 207 226 255 281 334 346 340 359 352 374 356 331 299 221 227 173 164 145
81 154 145 161 86 71 127 172 179 193 174 162 177 146 105 100 74 58 54 75 83 58 102 165 156 175 171 217 291 386 407 402 445 487 470 429 416 397 374 315 245 210 140 149
110 137 162 86 135 111 114 158 214 197 179 153 101 149 110 94 102 80 50 60 94 43 89 110 178 136 129 139 186 299 396 469 581 567 544 505 480 461 447 369 221 186 146 134
170 98 112 75 123 159 106 127 155 149 138 121 95 170 143 154 159 161 95 104 54 44 76 77 80 61 113 159 209 307 368 431 530 505 501 480 535 585 529 410 256 162 174 121
171 211 70 49 154 180 185 94 109 120 119 144 124 69 184 156 96 40 111 113 39 7 125 102 86 82 102 156 240 291 322 361 398 413 430 446 532 554 641 318 66 83 164 128
122 253 186 37 95 173 68 87 112 131 130 196 185 94 111 143 74 80 48 105 113 161 141 67 68 61 63 123 155 210 260 329 369 373 366 439 481 483 521 270 175 17 70 100
15 9 187 111 145 94 220 196 165 179 137 164 148 206 189 194 153 112 100 39 112 140 150 91 82 75 68 70 112 158 211 307 354 360 386 411 452 419 386 265 251 39 -23 89
2 18 50 131 162 142 124 279 255 233 215 214 206 133 119 194 234 80 108 133 156 163 218 188 185 136 86 26 63 109 147 275 307 367 358 378 356 353 307 261 180 73 8 57
206 116 -33 176 164 233 234 326 303 227 220 160 165 120 164 202 180 31 69 299 333 400 329 206 182 120 81 76 79 74 116 145 236 281 290 299 301 237 227 252 217 207 160 76
56 103 44 44 184 187 266 363 258 329 218 206 357 447 460 324 278 304 446 534 538 452 351 285 160 91 57 34 70 79 110 210 242 242 274 299 319 262 222 230 203 134 77 42
69 32 4 35 158 229 387 363 396 361 525 449 386 405 407 546 603 598 623 594 458 360 289 143 84 62 58 87 77 156 147 208 226 282 305 322 307 239 179 223 256 195 172 174
293 295 64 23 186 435 538 561 449 422 443 458 438 527 465 361 373 341 321 290 272 194 141 4 11 -4 60 -9 10 56 163 235 257 281 253 241 294 267 313 293 312 281 213 256
295 240 195 233 140 221 370 381 349 276 256 210 212 198 180 171 216 132 99 -34 -10 51 81 44 6 -45 -82 -44 -14 84 194 211 202 244 189 204 252 367 311 300 245 155 131 155
236 310 247 244 159 237 102 112 139 127 93 15 38 139 157 131 120 75 116 131 111 85 120 150 83 43 24 36 45 94 103 84 103 198 213 209 231 189 200 194 187 267 197 87

GFSCGP_con_3kmhel_009.txt.gz
Helicity
141 31 -57 -85 47 52 -11 11 -1 38 48 60 53 40 -19 89 123 126 126 54 33 21 12 -12 -14 -21 -26 -18 -9 -10 15 21 1 12 16 9 10 5 4 -4 7 10 18 28
179 -89 -71 25 87 80 -27 -18 -41 58 80 36 38 71 16 71 149 132 135 96 32 -3 -20 -21 -20 -10 -5 -16 -5 -4 8 24 25 29 26 21 22 18 16 12 14 20 37 30
168 94 63 40 78 47 27 -14 -46 11 130 156 42 55 91 79 62 91 68 39 1 5 38 34 22 13 -2 -8 -10 -4 15 26 7 3 -22 -18 -19 -15 -23 -10 10 26 19 23
148 129 30 39 30 71 38 45 20 68 76 57 67 84 31 138 126 131 85 71 47 27 8 10 32 29 14 -1 -14 -10 -4 -9 -35 -19 -16 15 11 -1 -32 -37 -41 -35 -15 16
212 142 94 37 -8 113 85 67 76 68 67 88 40 36 32 55 65 132 142 92 42 36 35 13 14 12 12 -17 -38 -32 -28 -53 -60 -43 -22 -20 -38 -58 -76 -61 -38 -18 2 14
160 151 120 94 106 88 138 140 144 173 131 62 40 25 -9 62 109 141 163 146 77 25 32 -9 -24 -24 -36 -35 -37 -49 -36 -53 -65 -74 -58 -50 -46 -38 -36 -23 -11 6 34 67
185 213 191 160 103 141 132 111 150 130 155 92 86 42 22 8 101 148 107 218 208 82 31 21 8 -8 -32 -29 -22 -24 -26 -64 -72 -81 -88 -64 -34 -12 -6 4 3 17 51 57
161 190 221 158 173 219 144 82 180 139 139 80 134 67 -72 -7 -11 51 20 93 112 164 89 40 34 26 5 -4 -7 -14 -20 -41 -57 -55 -54 -32 -12 -8 9 22 28 38 47 64
112 104 181 156 191 149 255 215 108 124 191 133 98 86 63 40 8 31 47 68 126 117 139 107 72 37 42 27 26 43 14 -12 -17 -23 -9 8 4 15 28 49 52 61 75 89
100 122 91 157 152 174 194 136 149 183 111 75 98 96 63 60 28 16 27 102 108 150 106 132 137 103 56 43 33 43 42 25 23 20 34 59 54 39 52 90 92 74 95 115
58 94 132 173 176 148 202 203 225 187 192 117 63 32 58 27 30 34 25 103 100 187 120 114 181 118 115 89 64 69 63 53 27 45 73 99 102 101 89 66 174 184 115 146
82 62 172 155 151 150 159 90 86 186 193 204 162 92 105 15 -16 29 14 36 68 143 119 79 120 96 47 38 38 61 94 106 115 127 107 146 189 158 224 255 164 125 203 122
111 117 106 141 108 43 214 140 113 86 158 150 141 113 120 76 25 -16 20 17 38 79 21 33 58 93 55 40 64 82 117 133 145 151 159 169 206 235 220 274 323 200 264 152
77 64 83 110 131 123 176 205 139 129 98 125 129 99 133 86 45 -1 43 19 49 54 58 64 72 107 90 68 70 103 119 120 145 212 253 276 308 353 377 434 363 300 316 168
78 83 34 24 24 39 75 101 134 155 138 156 153 140 101 97 58 48 51 34 89 68 77 72 48 95 103 53 35 58 84 139 191 254 309 381 385 313 330 422 590 556 559 115
108 139 51 27 5 35 27 100 98 91 120 141 118 162 114 75 66 42 38 91 79 47 45 45 32 46 61 91 85 78 95 137 181 237 251 243 239 278 376 475 609 713 442 446
66 131 116 78 68 56 68 70 84 81 87 115 135 127 92 87 58 44 36 87 55 54 30 21 66 98 79 61 71 88 97 90 130 159 146 144 174 234 359 465 571 725 504 201
131 115 96 152 93 93 65 29 46 82 69 104 130 114 79 37 21 73 83 51 18 52 50 46 63 78 64 63 50 38 46 36 73 108 122 145 187 203 256 379 455 613 378 320
119 143 254 143 125 109 31 57 32 69 67 37 62 66 103 36 62 132 123 75 61 38 49 42 55 72 97 68 51 40 67 87 75 70 82 128 186 250 301 311 429 368 249 290
107 51 159 193 179 109 125 192 204 195 129 124 101 78 101 99 97 168 201 154 105 50 59 116 184 220 194 137 110 125 141 83 43 25 25 72 131 157 218 293 316 182 194 185
178 198 186 163 103 118 130 225 159 128 103 154 112 125 156 197 217 272 175 195 192 256 256 323 361 350 295 211 156 150 192 89 48 39 60 61 73 107 141 293 337 318 264 220
152 178 343 103 121 133 157 201 166 142 145 181 245 236 311 273 336 345 348 298 348 388 445 462 512 486 378 275 226 223 122 76 74 116 131 129 155 214 250 306 300 255 290 351
137 163 289 51 118 17 82 214 303 293 415 361 429 363 366 414 439 442 473 438 459 480 541 457 322 255 223 181 97 53 35 84 147 135 194 221 192 205 191 195 228 250 207 260
210 124 171 187 27 175 276 347 422 401 403 367 363 365 354 401 388 421 403 382 378 337 358 191 147 153 79 -1 -38 -55 -51 57 168 158 199 163 150 176 162 137 121 163 247 372
239 177 111 203 177 152 284 302 325 317 290 241 279 329 352 281 354 302 291 256 232 178 145 97 58 -24 -34 22 61 73 63 90 108 124 128 90 85 104 109 181 166 133 200 231
249 202 138 131 174 180 223 121 124 197 211 162 80 72 113 245 228 171 165 161 155 132 79 47 35 21 16 23 9 6 41 62 104 104 85 72 93 111 110 117 128 171 154 155

GFSCGP_con_3kmhel_012.txt.gz
Helicity
56 -10 -90 -78 -47 -55 -14 6 -12 22 34 3 33 33 -2 -10 36 65 79 30 12 -6 5 10 8 15 20 17 23 15 14 12 6 -6 -1 3 -10 -13 -23 -20 -10 -6 -3 -3
103 -20 -70 -62 -7 -56 -0 -35 -27 35 43 9 2 23 -10 27 76 75 92 83 24 -0 -23 -11 1 4 18 33 26 15 2 3 7 -17 -17 -23 -12 -10 2 10 2 1 5 14
148 82 66 18 -36 -57 -45 -33 -38 14 18 9 30 17 29 4 30 75 70 89 48 14 31 25 9 15 25 39 36 10 -0 -5 -4 -11 -14 -23 -22 -21 -14 -13 -10 -6 -15 -14
112 73 81 120 36 -24 -41 -33 26 37 48 16 29 15 15 15 53 72 113 105 92 94 85 8 27 40 53 48 25 13 -13 -20 -23 -31 -40 -21 -34 -28 -27 -57 -74 -82 -71 -51
141 141 152 135 49 -1 -50 4 26 36 56 38 72 37 45 56 -8 52 101 140 114 104 107 108 73 69 53 48 36 2 -25 -39 -39 -41 -60 -39 -48 -53 -65 -63 -69 -66 -29 -19
77 97 135 115 112 104 44 36 45 34 46 -12 -5 64 24 26 -0 -8 46 93 114 95 82 76 68 54 37 27 13 -20 -31 -50 -56 -63 -55 -57 -66 -69 -55 -31 -21 -21 -4 22
109 125 143 128 112 83 79 71 97 89 87 23 68 -15 -2 29 26 -10 11 54 53 108 92 82 70 63 31 28 10 -19 -25 -43 -60 -68 -71 -70 -60 -46 -44 -37 -27 -20 3 25
130 167 128 137 115 140 99 52 84 68 79 77 34 41 -59 16 14 7 25 17 35 69 136 113 104 78 55 35 7 -6 -5 -30 -30 -55 -78 -88 -66 -62 -50 -25 -26 3 11 38
89 80 54 72 110 61 123 130 40 24 45 44 48 93 -4 29 18 2 1 17 34 46 69 133 133 102 74 32 25 20 18 22 9 -24 -64 -71 -51 -39 -22 -21 6 14 22 45
56 105 33 47 48 58 82 106 102 68 53 60 39 31 44 7 8 3 26 32 28 54 53 83 128 156 127 60 34 28 12 4 28 10 -13 -26 -4 1 8 13 44 57 72 87
4 61 42 52 113 112 113 149 112 71 77 57 55 30 25 33 29 31 15 19 16 64 85 55 69 140 156 81 39 37 29 26 17 20 30 37 60 70 49 54 76 98 140 124
13 49 97 36 47 34 67 83 100 162 117 80 36 16 18 15 14 -2 8 28 28 52 88 70 51 77 144 104 65 43 39 23 38 71 84 81 96 112 121 129 81 155 114 210
21 38 60 66 37 57 82 64 61 82 76 91 99 60 27 22 36 31 24 21 22 44 51 79 73 86 45 95 80 35 61 49 48 64 90 103 137 175 194 185 182 215 174 207
178 26 56 69 70 68 58 90 82 72 123 119 70 56 46 31 27 29 20 16 13 32 46 102 68 41 42 78 90 76 71 51 48 69 88 134 159 209 210 182 282 321 364 276
99 124 59 30 44 42 47 47 55 119 95 111 87 71 75 52 35 26 26 21 25 27 44 86 32 76 61 73 51 50 61 69 45 78 102 123 156 180 175 198 274 390 436 447
102 123 77 34 32 34 36 28 40 54 74 108 90 79 41 67 -3 19 6 23 22 37 46 71 63 78 45 55 69 66 43 54 72 82 81 87 131 158 148 199 306 406 541 572
164 107 112 68 9 39 46 27 42 50 58 66 117 125 81 70 43 16 7 33 22 15 58 82 77 58 47 59 82 65 61 62 72 64 49 54 94 136 154 180 219 300 441 695
191 145 118 82 89 89 45 31 30 35 46 60 59 51 71 61 93 41 17 32 29 23 33 64 71 90 96 94 105 75 86 43 56 52 37 54 81 96 159 232 252 240 313 477
91 162 109 118 97 74 86 85 119 73 38 38 50 48 32 28 53 112 92 60 43 44 53 51 110 128 144 84 86 103 116 88 75 62 54 50 65 67 116 192 258 204 250 343
60 91 145 138 134 99 126 139 170 161 109 28 38 56 41 57 127 75 140 65 60 67 70 78 118 110 106 129 154 167 175 151 123 94 107 90 41 29 45 90 187 225 297 337
149 114 118 151 135 142 210 199 30 52 95 251 31 48 36 45 106 116 140 109 156 123 128 125 142 157 224 264 268 263 261 225 155 150 120 65 37 70 124 160 178 228 235 218
129 105 122 129 163 125 190 151 50 105 129 81 133 100 85 181 155 128 151 188 179 212 213 192 260 327 351 343 296 294 260 184 127 83 53 54 128 172 215 247 222 189 172 161
84 79 153 119 155 170 105 102 144 148 98 89 89 129 124 220 274 298 373 357 372 362 340 368 476 524 486 392 385 320 184 119 106 70 85 164 200 251 280 230 186 186 214 167
149 138 125 107 198 212 60 164 243 160 207 322 254 180 204 289 392 442 417 406 450 447 412 397 355 353 382 320 301 204 118 105 88 102 107 127 219 227 179 128 128 144 134 119
236 240 92 190 161 240 274 177 284 226 238 243 294 303 415 426 371 367 420 379 419 415 402 320 292 256 219 184 146 97 70 83 97 111 160 214 240 223 220 262 213 139 151 107
288 251 143 89 101 176 400 371 135 128 177 171 159 203 268 274 340 384 401 310 372 348 251 200 148 105 78 57 54 46 59 90 134 180 207 240 243 200 179 152 154 200 157 105

GFSCGP_con_3kmhel_015.txt.gz
Helicity
31 15 -51 -75 -47 -23 -8 13 4 4 90 0 14 14 55 35 11 13 35 6 8 -20 8 16 19 20 27 39 44 47 36 47 22 40 22 -13 -9 -17 -1 -25 10 21 12 17
69 12 -34 -39 -25 -41 -18 -17 -7 23 84 9 5 15 56 71 15 2 18 36 23 14 -7 5 32 22 48 66 81 81 73 65 53 32 -18 -32 1 16 23 -19 45 21 12 31
38 58 1 -9 -38 -22 -37 -33 -41 -10 123 1 21 4 11 46 73 23 11 20 38 23 24 56 28 28 46 69 82 115 101 80 68 5 7 5 -14 6 48 0 22 13 21 24
12 5 44 37 19 -33 -24 -34 18 -35 132 54 34 -5 74 36 38 62 55 36 53 82 21 41 89 48 46 71 100 84 108 68 56 36 -7 45 25 12 13 8 21 41 24 -5
9 2 21 59 -4 -24 -28 -26 -31 7 50 65 58 6 -7 28 57 65 35 71 43 41 60 87 127 109 61 79 89 95 114 83 39 52 -17 25 -17 -3 -14 -29 -44 -56 -11 -24
-39 44 -2 30 24 44 27 -1 11 6 23 21 19 55 -10 102 8 45 45 65 76 35 64 105 93 122 116 75 106 102 131 101 59 33 22 -31 -5 -65 -34 -41 -20 -21 -19 1
21 -28 34 -20 55 43 33 19 54 44 75 0 19 54 18 25 56 23 7 58 82 86 59 102 134 125 140 106 127 117 142 99 58 31 16 3 -43 -40 -80 -44 -33 -29 -6 16
68 90 -26 53 18 30 31 18 74 60 51 67 11 40 -40 41 34 49 34 23 50 68 60 77 96 115 189 139 144 122 138 92 59 38 28 11 -20 -42 -40 -33 -45 -11 -3 33
68 61 31 30 22 15 18 70 16 18 24 44 46 50 19 59 49 51 20 11 48 70 58 89 111 125 159 160 139 129 115 82 60 54 51 17 -1 -37 -28 -29 8 -15 9 40
10 40 60 30 33 26 -16 59 55 63 48 48 35 24 72 76 48 17 48 3 37 51 48 80 126 121 131 150 96 94 89 75 46 66 65 29 4 -12 -24 6 27 20 38 20
-10 25 33 33 93 33 49 18 81 55 52 53 53 46 37 52 47 24 -2 4 27 41 43 48 132 126 131 161 110 98 72 64 58 69 66 44 27 30 33 48 69 56 45 139
21 38 77 24 22 44 20 32 16 105 77 67 18 30 75 50 67 31 48 46 27 54 65 37 52 105 108 133 158 134 93 70 97 110 94 93 88 85 91 105 131 114 106 141
69 42 62 50 25 33 49 -25 18 36 65 90 74 62 19 29 41 63 42 20 6 61 38 67 46 84 147 144 145 152 123 84 86 88 113 116 113 142 169 188 183 205 175 191
133 33 47 80 54 35 39 27 0 32 88 92 66 40 33 43 59 57 46 30 52 44 45 32 60 84 220 213 171 169 158 81 86 109 82 123 147 169 188 215 231 284 279 306
84 112 21 31 17 12 24 35 28 27 56 60 64 48 37 42 44 57 41 29 21 19 72 35 35 95 208 244 172 203 152 132 97 120 106 133 171 152 150 195 256 295 346 373
50 109 52 53 12 20 24 21 57 39 36 42 44 43 44 39 23 44 68 47 41 41 25 65 50 45 193 184 112 211 171 140 116 128 125 157 215 202 175 219 275 310 337 336
49 68 65 89 29 29 31 21 19 35 53 63 60 50 36 34 43 57 62 45 42 22 17 65 51 51 136 109 102 144 167 131 155 110 134 181 267 263 259 240 225 298 335 378
45 57 56 61 37 52 40 18 33 29 34 36 48 44 42 65 54 27 48 51 48 45 29 43 67 59 115 94 72 98 119 145 162 156 148 234 261 266 256 222 180 232 285 309
59 68 94 60 43 59 60 69 104 131 88 47 29 29 52 40 45 78 65 28 43 42 25 64 91 76 118 107 142 168 162 115 134 193 159 165 174 164 137 125 112 205 221 244
70 112 95 75 48 40 80 292 83 98 91 55 71 84 42 40 77 61 70 21 67 111 97 62 92 100 147 140 145 187 160 159 186 199 185 137 101 98 114 87 93 165 199 235
114 117 107 82 66 44 171 157 81 104 91 121 140 114 62 50 70 34 70 65 91 105 74 128 105 179 199 193 160 180 208 193 204 223 182 146 120 109 81 101 137 149 173 217
115 149 97 84 54 44 148 59 123 116 87 88 75 69 77 80 30 97 92 109 128 122 129 123 198 218 166 204 240 224 266 296 302 273 224 186 157 94 111 138 207 217 241 247
86 101 87 111 167 221 225 202 158 101 90 97 100 47 142 103 176 138 124 70 55 114 115 163 235 216 261 322 241 325 370 347 315 271 240 182 187 202 183 188 219 259 257 265
242 92 59 136 138 206 112 114 113 110 113 243 199 125 123 211 216 237 236 185 187 239 281 307 305 273 391 363 329 316 271 255 226 241 283 228 193 213 186 247 296 296 272 217
432 291 195 284 175 149 154 156 116 201 264 307 406 553 459 365 357 343 377 354 354 373 357 299 317 330 399 391 333 284 212 183 217 195 174 180 201 250 334 377 289 246 236 167
193 281 249 251 44 190 181 265 253 241 253 287 277 288 326 375 461 502 492 408 359 350 353 390 371 321 286 262 211 149 108 95 100 115 116 148 242 252 262 267 287 340 245 203

GFSCGP_con_3kmhel_018.txt.gz
Helicity
11 50 -5 -25 -58 -22 13 3 31 84 46 4 200 131 -39 -100 7 21 60 15 39 24 29 45 39 60 37 121 154 146 88 71 156 155 86 20 -10 0 -2 -22 121 155 69 57
14 19 -19 -35 -44 -36 -12 11 -12 97 176 -18 76 160 -45 -85 33 40 59 50 15 26 38 26 86 34 90 125 181 182 141 120 127 153 105 59 -11 -35 -21 -1 54 104 58 61
11 24 -15 -7 -4 1 -39 -20 -6 32 85 14 -2 12 72 92 48 28 38 83 65 53 45 109 83 65 92 165 216 221 183 147 142 123 96 2 -40 -76 -17 68 113 156 108 96
15 -45 48 -22 11 -11 -2 -22 9 24 95 126 1 -31 57 16 93 74 83 17 82 109 85 86 199 195 91 165 223 231 216 169 153 86 91 41 58 17 58 69 54 125 88 6
14 -8 -66 47 -27 -22 -23 -10 -2 21 30 143 17 47 27 40 95 134 87 78 25 90 101 126 266 318 222 163 270 270 240 182 159 110 63 76 71 35 -19 -9 100 101 22 22
-23 -11 -8 -46 35 -28 12 3 23 18 25 33 29 100 14 98 186 33 74 77 58 40 132 170 195 291 320 189 276 281 289 215 164 139 89 51 93 -1 -7 41 46 26 46 21
-21 -44 -45 -8 -40 36 -21 18 42 47 50 39 53 179 155 19 159 30 176 16 112 69 98 192 250 318 387 328 293 367 338 260 188 134 100 55 55 0 -21 -22 26 10 -5 41
36 25 -26 -5 -19 -38 33 -33 84 106 85 28 4 41 128 118 122 86 207 29 136 158 110 167 241 278 339 361 322 364 465 344 218 136 93 70 43 21 -23 -35 -12 3 -3 33
65 42 9 -9 24 -36 8 33 -14 2 21 35 37 72 1 46 175 223 156 18 28 165 138 137 216 276 287 343 356 365 413 420 243 149 100 86 60 47 5 -23 -33 -6 -37 14
-10 29 47 27 -6 35 -56 46 50 45 48 55 36 17 134 36 177 92 169 4 50 22 153 126 193 277 292 328 342 319 340 379 256 144 102 93 82 55 5 0 -3 6 3 0
1 -5 16 45 110 27 64 2 -12 53 35 60 57 24 38 104 105 137 108 52 45 20 117 116 179 259 303 285 322 275 268 259 225 135 90 88 82 51 41 18 46 68 48 74
54 51 63 -12 53 58 25 77 15 33 89 77 15 32 19 60 110 155 112 84 57 9 86 125 168 259 334 285 258 280 223 215 209 176 104 103 100 68 67 82 80 131 156 154
79 85 96 58 16 38 76 32 54 33 36 69 88 32 -57 205 293 26 72 3 12 56 96 151 127 214 283 329 266 263 242 183 174 163 162 144 117 113 114 138 172 189 227 252
112 87 98 127 93 36 43 49 40 24 76 66 49 80 17 84 24 -11 83 79 61 43 106 93 83 141 241 364 438 338 258 196 165 172 175 187 176 172 161 181 199 226 302 306
127 131 67 66 13 11 14 45 44 62 37 55 50 30 68 12 67 185 103 149 56 49 112 130 84 118 231 354 458 477 321 240 172 182 177 182 183 171 155 179 237 240 265 365
85 142 126 84 29 13 18 23 34 59 46 19 41 46 30 47 28 35 319 50 74 100 74 116 95 103 152 279 431 515 400 283 183 183 210 172 165 173 173 204 226 276 285 362
106 141 130 205 40 33 47 34 24 46 51 39 48 50 57 47 14 60 72 50 45 136 60 79 93 99 89 183 337 506 408 313 256 198 239 209 192 253 236 244 252 251 294 339
117 134 123 148 67 113 62 50 26 30 37 52 69 68 67 24 2 -1 37 32 96 130 148 180 85 142 156 50 214 340 356 288 283 255 260 241 226 290 293 272 240 252 272 310
65 158 110 94 132 115 61 29 28 56 50 46 82 115 49 72 48 30 -70 7 15 104 40 162 115 116 220 121 180 259 265 195 244 246 272 235 274 324 338 318 292 264 243 225
12 136 96 78 119 150 50 28 152 118 154 137 153 113 138 187 143 108 63 42 27 11 24 48 55 72 308 217 189 254 243 186 200 190 251 296 323 353 342 341 284 220 220 261
215 209 109 90 122 57 56 137 106 144 155 130 151 139 85 85 94 153 31 85 140 60 57 40 68 218 222 204 214 254 212 213 173 176 251 311 351 370 352 254 241 224 213 202
218 208 112 92 118 95 101 170 154 153 118 131 126 103 121 105 99 23 51 38 146 114 55 186 248 210 210 195 242 284 250 258 226 242 291 289 285 285 245 258 207 238 241 247
157 120 101 90 94 80 153 116 114 73 160 173 155 144 50 33 66 65 95 152 125 187 203 164 226 288 338 291 307 377 323 305 273 293 312 280 242 284 301 319 259 255 251 276
83 -54 16 52 58 81 192 165 194 231 316 269 222 179 224 128 126 128 127 142 159 177 159 261 296 313 357 404 432 471 390 349 360 366 401 436 378 306 272 270 223 265 274 286
28 92 63 48 236 244 288 240 237 260 195 233 270 291 312 367 510 349 552 478 384 395 404 409 393 369 396 448 544 530 484 445 498 448 354 326 306 305 346 354 307 269 287 199
21 2 139 215 499 280 318 254 223 237 142 78 246 331 357 354 433 443 615 594 508 550 442 424 381 393 417 428 413 360 334 286 255 272 235 224 240 226 233 273 347 400 282 220

GFSCGP_con_3kmhel_021.txt.gz
Helicity
-40 42 -0 17 -53 -72 -64 -30 17 71 71 334 200 170 145 111 60 100 324 242 268 132 64 114 118 94 151 189 232 222 190 201 163 102 101 59 15 -12 -21 5 49 35 93 80
-37 3 -43 76 38 -39 -74 -74 -43 -17 140 266 190 323 103 12 36 115 266 292 305 256 119 149 153 159 191 214 242 225 209 241 226 193 146 84 38 -27 -50 -27 52 119 116 109
3 21 -10 -28 27 39 -59 -99 -81 -63 14 234 220 200 40 -102 91 2 65 244 289 304 293 254 192 190 239 281 279 264 238 244 261 234 184 116 46 -30 -46 -38 80 97 120 105
22 -13 -7 -32 -39 -29 2 -75 2 38 -34 115 308 25 -9 -44 -19 -26 -3 195 271 293 301 365 376 303 275 295 317 289 272 266 255 286 239 188 103 45 -36 -12 89 119 117 96
42 18 -26 -34 -21 -62 -55 30 -47 79 42 234 81 47 27 115 85 -89 103 248 245 264 328 382 448 458 424 447 445 382 311 266 235 250 232 152 95 59 8 36 78 125 120 99
-17 13 -35 -62 -88 34 -24 67 29 49 22 70 165 79 84 153 179 132 180 204 253 236 294 342 437 461 432 501 517 501 372 290 278 211 221 159 107 59 17 10 85 89 84 42
-14 -29 -85 19 -64 -43 13 35 -2 57 64 31 55 153 160 -65 70 276 229 136 187 214 287 313 357 438 455 506 568 578 463 328 289 231 159 143 98 50 26 39 109 103 58 46
73 -26 -53 -76 -55 -68 34 13 69 154 78 87 40 161 53 189 111 252 285 138 249 236 316 308 371 445 470 495 545 586 566 420 313 251 173 116 109 28 1 39 53 82 68 46
138 38 47 -31 -101 -16 -78 63 -28 78 60 101 82 79 14 106 118 117 308 205 128 153 134 288 375 413 496 488 514 547 571 505 361 292 208 122 93 55 35 -0 28 19 14 30
75 115 77 -63 -7 -22 50 43 127 35 68 65 38 82 9 82 168 291 204 92 126 112 90 286 328 414 485 552 535 511 565 549 443 292 241 143 91 63 12 11 20 18 13 43
95 28 32 30 42 41 40 16 10 130 64 95 107 39 -71 21 233 294 205 149 175 61 126 258 268 372 429 479 488 499 508 491 408 322 219 137 94 75 37 7 24 81 23 83
245 113 83 -22 21 141 85 171 99 124 147 135 100 -4 -29 69 79 187 406 284 89 111 148 300 301 354 438 422 452 483 491 483 410 336 237 145 84 75 46 35 32 71 104 163
177 228 174 58 -40 -3 163 135 215 104 151 139 183 40 -127 -78 -15 4 243 157 28 57 156 270 312 337 411 395 415 469 475 452 384 306 262 159 83 84 77 64 83 116 154 186
204 229 223 170 61 12 103 169 160 214 151 46 -38 54 49 10 53 125 88 41 209 34 126 268 356 331 334 402 409 447 466 415 386 304 240 187 136 124 120 116 119 177 201 245
38 103 237 201 118 60 8 72 180 199 204 201 88 81 41 25 58 53 90 107 73 34 84 235 388 335 270 325 383 450 480 446 337 316 225 175 164 128 97 109 137 161 240 294
98 177 164 204 134 82 57 27 60 153 152 140 106 52 98 22 64 102 114 129 184 40 80 160 267 230 235 298 381 436 465 493 389 297 249 167 140 138 127 138 171 215 210 264
105 192 237 342 288 211 45 2 37 65 147 185 193 132 88 66 -25 30 76 85 108 93 77 110 182 209 272 303 335 406 472 541 456 301 292 221 176 169 176 197 212 245 270 295
171 270 255 355 293 258 144 48 45 58 76 125 221 192 109 103 52 38 82 139 262 166 98 104 144 178 163 250 323 363 488 559 518 345 292 290 273 194 196 218 246 233 267 261
118 225 297 236 262 302 169 182 94 57 68 39 87 246 231 213 66 43 47 87 102 67 -4 33 129 140 160 229 236 354 436 565 572 407 309 336 320 255 238 238 243 248 242 262
54 82 283 169 297 272 212 98 41 85 147 134 175 211 246 258 173 136 143 158 213 111 175 103 179 151 194 242 255 305 379 455 533 458 348 352 367 325 324 345 304 303 308 344
74 38 128 167 223 269 114 117 49 146 155 173 198 227 236 199 155 138 132 98 27 102 82 145 139 196 79 171 359 340 310 360 440 445 415 361 366 370 381 404 378 458 440 414
119 188 100 223 190 220 208 172 95 128 223 208 197 212 196 165 170 162 125 81 79 77 92 93 140 198 171 209 375 375 350 306 413 500 365 393 369 405 433 478 507 409 358 398
181 122 251 203 196 179 199 241 269 229 267 383 249 213 140 172 185 287 331 241 135 158 134 154 190 288 324 362 355 364 387 443 486 464 456 420 485 502 523 534 432 419 336 263
87 50 160 102 292 61 212 117 234 306 376 297 266 242 212 192 191 248 363 373 410 354 321 322 446 474 505 508 460 431 438 481 507 611 573 582 614 604 519 453 382 334 255 259
103 97 72 119 128 336 230 118 131 191 140 169 229 266 270 257 297 293 332 396 398 390 421 488 467 439 427 411 449 442 503 599 666 778 672 595 571 564 569 484 311 224 289 223
91 109 145 163 128 171 553 407 252 263 210 214 202 275 312 356 382 411 479 451 489 390 344 364 490 507 511 527 591 665 709 703 672 598 441 422 393 358 311 280 346 447 324 281

GFSCGP_con_3kmhel_024.txt.gz
Helicity
-6 59 -1 -10 -37 30 -36 -136 -102 -99 -17 128 162 204 282 361 272 265 378 341 207 70 11 43 121 124 114 162 194 179 168 138 88 78 95 71 42 5 17 50 5 55 64 71
-46 -24 53 121 144 72 -64 -142 -143 -144 -90 67 146 195 278 388 323 353 375 372 323 168 40 7 168 167 201 249 231 230 220 170 142 96 85 31 11 -7 -42 -13 -7 13 50 79
45 118 -57 46 50 58 -59 -131 -173 -120 -37 45 202 300 267 237 230 183 275 378 335 297 244 137 130 224 282 272 293 303 260 204 184 177 135 57 14 -27 -25 -4 6 14 70 114
-34 -32 27 -6 -53 -30 -116 -109 -80 -31 36 60 26 81 26 92 30 136 240 328 391 344 295 283 239 271 313 350 326 328 298 263 251 249 194 158 117 73 23 25 10 32 81 133
107 89 24 37 24 -56 -83 21 -46 -45 19 42 -90 42 70 69 -20 -24 114 292 360 384 287 344 399 420 420 409 387 368 394 353 304 245 244 231 178 106 47 34 14 46 81 94
38 39 45 19 3 -12 -26 31 27 21 19 52 -68 -81 28 72 -25 -19 64 212 325 346 328 307 404 417 453 477 446 403 420 380 347 291 263 262 211 115 65 28 30 43 50 65
48 -19 63 25 37 -11 52 26 -7 10 54 -5 -23 82 -32 111 114 157 130 258 329 288 350 315 345 361 396 501 495 464 436 390 367 335 289 266 221 127 77 55 49 62 41 48
111 26 12 -1 43 2 -15 43 11 159 115 18 50 105 -71 81 171 277 210 213 362 217 256 337 409 393 450 511 566 556 490 417 385 327 287 249 201 107 52 38 51 30 37 84
155 97 75 52 48 43 -86 25 22 -11 48 128 69 115 24 56 95 165 181 229 301 208 212 347 419 359 441 472 557 572 549 453 407 323 259 224 182 105 50 29 17 19 37 48
154 118 49 37 77 15 63 59 81 136 -29 15 66 87 75 89 12 75 178 284 356 258 158 231 377 366 403 499 538 542 564 535 457 359 268 232 165 117 71 36 33 13 16 24
158 198 123 88 117 27 38 -2 95 91 84 4 -77 -122 21 -66 -13 52 192 333 362 352 167 165 296 296 429 488 509 498 489 444 389 330 270 217 142 83 59 8 -2 31 31 26
73 135 137 112 54 69 19 53 97 152 210 121 39 -47 95 46 20 24 91 307 285 292 306 144 308 272 270 436 475 470 488 416 400 360 281 222 145 81 54 40 -2 -4 44 73
449 112 183 171 101 21 83 39 17 221 235 93 99 -27 106 52 33 -67 36 140 198 247 233 254 297 279 275 368 457 446 459 439 364 339 282 212 157 103 57 46 44 9 16 80
103 142 168 108 130 130 158 100 35 64 194 134 13 209 160 58 45 -38 4 56 148 264 147 169 323 326 329 327 432 390 398 448 389 345 289 222 191 128 76 51 54 56 83 104
96 166 192 53 68 120 162 163 133 99 102 228 71 191 140 57 -2 27 98 55 226 227 146 81 183 240 291 296 356 369 361 414 411 338 315 238 198 146 78 48 65 87 71 114
45 124 201 138 155 42 119 110 101 134 104 161 257 206 229 92 70 14 79 103 146 205 201 170 324 230 348 294 338 360 365 374 396 317 289 255 192 159 91 75 90 117 137 149
-39 115 243 91 246 138 76 84 125 114 159 124 205 233 207 181 115 57 16 83 99 162 201 148 207 329 322 353 306 332 353 406 407 334 272 225 215 188 145 121 126 136 163 232
88 234 205 195 394 254 257 45 112 110 102 94 168 129 227 162 98 130 40 42 103 56 131 169 129 181 272 341 306 307 362 409 406 347 311 243 228 213 181 180 164 179 191 193
59 194 149 256 342 339 299 218 164 154 61 70 68 146 131 193 262 208 191 152 95 75 104 51 113 158 278 201 249 298 326 355 386 388 361 342 244 237 222 178 197 209 213 205
67 44 151 210 479 408 268 266 336 230 199 194 145 116 199 275 282 220 232 193 163 135 65 91 116 211 169 164 283 332 339 356 369 389 410 469 378 275 256 221 214 241 229 222
229 249 163 156 379 466 250 191 223 320 194 209 217 241 249 267 254 289 262 219 225 222 218 97 84 184 138 154 200 237 303 346 300 336 394 457 491 371 278 283 264 231 246 272
202 283 377 250 303 384 572 227 201 262 215 196 220 225 286 247 231 216 249 234 189 147 132 126 85 129 130 244 297 307 330 253 273 331 376 400 478 464 368 321 314 292 316 326
91 214 267 196 185 481 550 197 307 290 308 291 228 207 141 199 224 225 187 139 138 179 198 173 109 82 99 180 240 331 250 302 345 398 385 429 424 426 383 407 437 409 386 365
124 259 256 124 3 331 417 502 345 374 346 328 241 193 180 172 189 203 221 222 196 172 145 123 160 145 163 182 229 222 289 403 463 451 374 402 414 443 405 402 456 455 416 390
136 211 194 -8 -73 263 357 428 487 378 325 351 392 352 291 244 247 179 186 218 199 162 168 169 171 257 321 225 333 455 418 453 609 605 519 469 526 578 702 722 576 462 428 284
225 192 209 114 -3 47 243 352 330 373 326 311 282 383 363 270 230 213 227 206 222 235 196 185 233 224 197 278 427 496 489 486 537 558 635 692 768 780 803 795 710 602 263 220

GFSCGP_con_3kmhel_030.txt.gz
Helicity
174 162 71 69 105 73 36 23 -13 -32 7 41 59 30 107 295 243 326 311 222 176 86 51 15 -15 -16 -9 -8 17 24 23 -9 -9 -17 -43 -42 5 -15 -24 -7 3 2 3 27
281 197 105 91 118 112 78 5 -44 -21 -4 50 45 -16 69 298 315 353 363 274 170 30 49 54 8 -1 -4 32 51 61 62 45 36 28 1 4 40 -3 -7 -13 -13 -3 8 31
251 134 115 37 131 115 75 -102 -31 4 55 95 53 29 53 94 166 73 114 267 160 42 87 50 46 59 49 13 49 72 87 91 71 53 20 4 47 24 -9 -24 -7 13 33 41
146 67 84 141 8 115 23 80 36 -25 52 51 78 -70 -17 -62 107 74 109 213 195 81 43 78 44 33 53 92 79 86 74 89 93 97 74 85 73 96 67 76 72 56 42 52
240 202 200 73 118 121 56 126 73 53 37 23 56 8 -105 70 6 60 90 254 256 225 156 167 166 130 139 91 89 116 152 145 134 172 145 120 92 77 48 50 75 48 36 51
212 151 131 125 167 142 161 124 131 102 61 -25 -144 -99 -84 -56 11 71 68 119 230 236 193 172 219 133 93 91 86 89 119 139 160 180 175 159 134 116 84 45 71 66 32 26
156 92 121 140 138 98 130 105 73 86 97 -62 -35 -114 -48 -36 80 69 143 171 229 284 280 228 195 204 185 189 181 191 158 132 170 208 205 201 180 171 128 107 92 88 58 17
240 170 90 164 142 165 107 124 186 175 152 45 109 -122 -70 -170 42 16 73 192 244 273 319 303 305 318 318 317 307 240 234 185 196 222 221 233 219 184 134 118 105 84 76 36
195 185 134 199 210 172 236 150 123 191 208 153 187 -38 -98 9 17 6 13 61 153 278 339 343 328 322 318 310 356 378 301 235 240 239 243 238 243 201 160 152 139 101 76 23
172 145 150 65 242 163 160 258 268 255 89 -31 157 114 102 119 44 52 34 49 102 156 218 257 292 315 315 335 422 449 406 383 332 316 302 299 293 271 221 198 138 127 90 50
264 196 227 210 201 168 277 252 256 182 258 94 -2 57 89 42 -25 44 2 33 87 122 229 283 279 291 328 306 307 406 424 401 358 319 328 312 259 254 248 227 164 135 120 77
314 276 211 189 197 109 123 221 332 297 226 228 64 -25 -4 -60 116 192 72 73 37 28 125 245 313 303 273 279 291 335 388 380 405 430 381 366 355 313 290 235 179 152 123 86
475 413 324 310 158 176 192 157 250 192 240 38 162 56 -59 -52 43 94 -0 34 84 107 53 148 213 273 291 306 288 338 338 361 367 401 380 341 335 306 274 258 205 179 150 101
407 413 371 350 328 383 256 208 183 200 223 43 -55 -28 135 53 -11 6 13 49 50 -12 73 113 195 259 304 273 307 335 355 355 356 348 335 338 347 333 277 272 229 186 156 155
264 452 421 363 482 352 307 261 208 221 157 141 -4 -54 -17 17 -7 -32 7 70 59 92 122 90 150 263 294 300 262 279 284 375 377 346 318 301 319 278 256 231 209 150 140 142
104 301 305 306 327 358 213 221 229 202 164 154 1 21 96 1 47 92 46 56 73 -10 20 98 118 217 300 317 278 297 326 368 427 380 298 272 280 267 243 217 191 159 103 107
80 100 190 169 257 343 202 102 159 172 198 198 52 49 137 104 108 97 69 97 67 35 -22 -56 73 148 254 308 306 278 303 364 394 372 332 290 291 264 248 230 203 173 128 129
-14 34 47 122 144 106 193 297 229 114 111 210 212 154 173 148 94 97 160 142 109 111 72 99 75 123 161 216 255 260 319 332 313 334 328 295 316 266 252 253 210 203 181 162
-42 8 63 129 143 189 391 334 275 109 136 165 134 184 179 144 135 49 76 62 89 83 69 69 132 142 145 158 138 218 293 239 195 214 291 323 329 290 284 269 233 223 216 190
39 48 86 83 120 31 62 195 131 84 -47 179 228 150 138 218 186 112 42 97 53 78 50 73 58 116 122 108 198 218 310 308 259 267 330 339 325 334 309 303 280 273 264 225
97 85 20 102 193 142 213 249 53 214 60 240 140 129 62 234 155 47 74 95 73 91 65 104 100 127 127 110 176 240 295 321 343 335 300 289 288 308 335 281 276 310 304 296
115 61 58 116 189 120 234 215 213 168 47 103 147 109 104 67 174 135 96 182 179 206 223 188 155 137 92 87 126 176 197 204 217 252 244 259 275 277 288 288 304 280 313 293
143 153 222 112 87 148 113 114 16 -6 48 40 84 143 61 83 161 229 232 258 254 240 254 226 175 181 209 174 139 126 159 127 106 148 193 240 239 240 230 321 377 395 336 295
62 89 100 145 99 84 92 69 32 -15 45 87 114 57 141 237 374 556 469 394 302 321 297 241 236 246 264 222 196 147 128 92 71 91 136 185 197 174 154 233 307 272 266 563
69 61 71 63 55 115 140 -67 2 37 101 157 193 262 423 426 543 528 548 503 392 324 232 172 130 109 106 110 118 142 146 93 81 73 70 87 128 173 200 304 307 313 260 249
96 111 24 39 20 77 59 129 136 97 161 232 266 328 381 447 508 465 469 416 349 314 276 219 151 77 36 1 -33 -58 -47 -28 -18 31 56 81 136 242 286 356 426 609 334 339

GFSCGP_con_3kmhel_033.txt.gz
Helicity
117 158 129 67 65 49 55 12 -24 3 20 9 -14 64 21 50 68 158 160 130 143 106 57 14 -1 -16 -13 -24 -29 -23 -20 -17 -32 -30 -20 -3 19 -5 -6 2 -1 -6 1 8
211 187 80 112 66 28 35 8 -33 -16 33 16 9 8 12 56 123 162 253 176 162 86 87 -6 -8 -6 -21 -26 -34 -32 -15 -11 -15 -23 -6 8 17 7 6 -4 -13 -10 2 9
229 112 102 88 48 24 -12 -93 -12 3 54 24 6 -27 10 19 57 80 112 105 62 64 162 92 -13 5 -8 -30 -31 -31 -20 -13 -16 -10 -23 -32 -6 12 -11 -13 -18 -6 3 5
84 150 49 121 48 26 -53 -10 36 3 24 -14 28 -10 -56 15 -7 58 71 100 50 46 40 70 76 -14 14 -5 -18 -3 -9 -0 -3 10 5 26 32 43 42 47 25 5 -5 -2
222 176 208 52 122 66 14 10 -6 24 16 35 4 -0 -69 34 -73 -9 86 93 102 34 31 91 92 96 56 -23 -25 -21 11 15 10 37 58 50 33 19 1 6 21 18 -0 9
116 164 128 132 36 85 67 91 55 79 43 -38 -34 10 -24 -107 2 -9 39 42 96 130 84 60 59 63 60 57 -30 -49 -22 7 23 43 70 76 70 50 16 6 10 11 22 17
97 123 105 86 84 18 32 21 84 79 18 -26 32 -27 -12 15 -52 9 14 66 82 165 137 110 85 66 93 103 147 52 28 16 37 55 56 88 83 87 90 72 24 27 40 43
188 151 130 105 63 152 63 53 186 93 9 7 69 -25 -11 -81 -48 -11 6 42 18 43 133 157 166 156 148 147 135 146 119 67 84 87 88 87 94 81 87 66 43 43 38 37
135 113 119 179 151 108 134 77 48 129 126 77 30 -43 -33 55 11 13 4 33 12 37 69 148 211 206 218 192 201 204 192 136 141 100 109 119 113 121 111 120 119 62 60 31
210 156 126 29 133 71 117 184 225 96 -3 7 36 35 100 47 106 64 30 44 47 31 76 112 138 214 265 248 268 266 240 209 210 180 171 144 150 150 153 152 131 112 98 59
249 211 198 157 150 165 226 134 163 115 207 24 52 29 -0 5 51 69 55 40 -9 13 78 83 135 206 229 194 186 225 282 281 227 196 175 141 91 87 131 163 140 127 134 98
322 259 236 120 131 72 119 158 171 250 175 89 95 19 42 -29 -28 23 20 11 44 38 48 70 136 74 103 168 206 208 230 253 289 291 233 197 168 175 178 187 171 145 145 120
456 334 212 222 187 155 117 91 95 92 109 38 70 -9 15 80 51 68 35 86 81 27 -1 -3 59 82 163 216 212 214 224 180 200 234 251 207 196 199 205 209 190 166 154 129
458 414 370 215 210 315 268 196 106 104 149 73 -63 -4 62 72 7 29 79 146 75 43 84 87 95 95 127 172 245 214 192 159 156 172 215 229 243 254 238 239 226 211 186 147
432 467 516 411 437 367 366 369 373 243 129 49 -21 -45 -38 8 -15 -38 -31 6 50 70 64 34 52 64 101 160 226 215 150 161 163 154 187 210 217 233 218 195 213 189 182 156
307 387 427 448 465 409 336 317 292 296 259 212 48 -37 77 56 34 14 -9 -18 19 48 52 84 72 59 69 138 242 260 133 176 187 196 196 211 200 263 253 204 216 209 176 151
226 278 311 292 396 396 194 214 242 230 187 169 28 20 56 11 16 24 46 67 44 16 18 21 54 69 63 126 240 243 195 193 211 190 201 218 241 261 266 232 214 232 192 165
77 129 201 256 234 237 232 240 244 194 128 87 34 48 66 10 -13 -7 59 56 56 57 72 107 116 129 122 102 91 180 183 233 227 189 185 189 230 230 263 279 247 258 214 189
-19 33 131 207 227 294 319 253 274 267 194 246 159 62 28 28 15 20 32 39 24 78 97 65 33 23 104 82 107 151 163 196 215 183 216 237 277 300 266 245 239 265 282 214
-4 32 106 95 201 183 114 169 171 129 100 156 214 137 104 90 -12 35 24 22 48 49 97 57 37 31 62 83 45 130 145 175 169 197 219 262 286 242 315 254 239 250 248 263
91 69 1 77 130 141 263 196 132 186 181 168 168 97 80 68 89 64 -22 6 -23 29 54 52 67 68 68 40 62 89 109 108 115 79 120 177 182 200 228 203 172 140 141 155
106 77 26 55 70 -11 153 206 249 245 182 146 154 150 83 -7 -4 7 -80 -29 -24 59 107 95 132 129 131 78 58 88 112 108 83 96 100 150 164 149 148 193 179 192 81 188
112 98 164 161 32 244 223 241 201 139 105 50 76 54 31 5 -20 -13 -8 8 47 80 149 149 159 196 165 118 93 120 140 102 81 78 107 106 118 125 170 180 226 218 258 165
45 67 97 118 121 171 259 193 193 99 120 -110 -109 -20 27 -41 -56 -4 28 47 94 153 239 230 233 283 286 207 164 127 97 88 65 54 60 65 67 92 115 138 193 125 110 177
32 55 67 76 81 92 123 165 145 100 66 29 -6 -39 14 -39 -31 -17 106 213 243 284 367 361 327 347 337 268 251 248 212 141 86 54 34 21 15 38 62 116 110 190 260 227
92 59 95 15 26 44 46 42 84 63 23 -27 -34 110 32 58 162 198 330 392 445 465 469 432 331 296 295 263 231 197 180 150 109 91 70 49 31 32 24 126 171 283 285 198

GFSCGP_con_3kmhel_036.txt.gz
Helicity
136 131 134 74 50 80 101 66 46 26 28 24 18 21 14 32 25 29 76 85 89 94 89 47 19 -10 -17 -27 -34 -30 -24 -26 -30 -21 -14 -8 6 4 8 4 6 -11 -3 -1
120 150 66 69 93 81 115 75 41 62 50 62 47 28 15 27 15 24 29 65 94 42 54 43 19 3 -6 -10 -22 -30 -24 -29 -25 -26 -15 -10 -0 4 5 2 -0 -0 -6 -3
152 37 46 50 67 53 40 10 45 76 52 40 51 4 12 18 12 9 33 31 46 29 54 103 34 16 7 -3 -8 -18 -23 -25 -27 -18 -33 -25 -17 7 -4 -3 -7 -13 1 10
28 97 34 53 44 59 6 26 77 88 94 65 28 25 -18 -4 -5 -3 17 55 35 20 19 28 82 34 28 17 -12 -20 -32 -27 -27 -18 -17 7 8 14 10 16 -0 -9 3 11
84 52 89 50 78 21 5 65 48 56 58 58 63 50 19 3 -83 -37 13 55 22 27 25 33 126 156 68 23 -8 -21 -35 -32 -22 -18 -15 8 -8 -5 -8 -8 -5 8 8 7
16 51 51 16 34 13 37 80 91 68 92 28 18 -6 40 -40 -79 -41 -18 12 22 -1 22 26 38 80 66 29 5 -2 -12 -25 -17 -1 -4 1 9 -7 -8 7 9 7 18 39
55 28 48 72 2 18 20 28 58 93 47 -24 50 8 -30 32 -15 -36 11 18 14 -2 -9 21 29 42 52 65 46 15 14 2 11 26 15 17 15 15 14 29 16 15 16 18
127 94 70 77 5 47 26 6 140 80 89 -14 57 22 -22 -5 31 100 38 32 22 24 -1 9 57 64 66 96 124 146 110 67 65 52 55 57 55 18 8 20 3 24 15 24
84 67 84 103 87 57 80 -5 -34 143 134 105 16 -27 16 63 46 23 53 42 33 32 13 4 51 80 93 68 97 132 170 139 89 79 105 94 79 66 44 18 66 28 28 25
171 114 95 78 48 51 93 43 44 -23 -33 -14 15 7 31 11 42 19 13 11 39 32 24 3 21 60 72 95 106 140 177 211 206 161 123 86 95 100 93 105 75 58 56 46
290 210 97 98 108 115 112 111 16 31 -15 -29 18 5 -28 16 28 -0 1 -18 -2 41 39 40 47 58 43 32 60 83 98 117 125 139 172 164 142 92 62 89 110 107 72 81
275 280 256 84 70 51 63 105 100 147 -21 -35 54 15 60 5 -19 10 12 15 16 27 37 20 28 17 50 68 50 54 51 65 75 110 138 158 142 146 112 106 99 107 94 94
323 267 221 147 78 70 81 88 76 59 78 -17 -11 49 39 81 22 35 68 83 85 108 97 84 43 1 48 54 45 41 37 39 62 98 101 96 111 116 132 112 65 91 108 103
382 352 170 154 78 94 100 103 87 80 84 66 -17 44 57 48 45 66 68 92 81 68 76 31 24 -12 12 46 78 90 39 23 19 46 56 110 121 158 183 167 130 139 153 151
459 256 306 323 245 318 216 92 103 115 67 44 45 -7 58 48 71 50 96 227 230 144 93 94 87 95 76 60 58 100 74 70 16 53 47 74 110 130 145 175 164 154 143 146
429 354 319 386 330 307 348 297 305 174 79 69 52 61 47 45 87 38 22 27 198 223 215 151 89 45 64 46 40 51 92 78 78 48 77 63 88 115 136 177 179 163 175 171
400 433 257 239 206 328 264 242 170 162 184 166 51 73 77 61 34 54 63 6 -26 14 84 105 135 84 96 82 59 52 107 99 126 53 93 90 94 114 140 186 192 186 210 180
259 310 340 396 202 219 154 127 65 95 125 104 92 121 109 67 31 24 24 40 85 94 104 97 95 62 41 75 65 79 71 122 160 113 75 97 116 97 119 178 201 190 213 209
17 202 320 332 273 398 217 237 239 165 147 134 92 117 83 38 4 -25 -17 3 7 30 58 100 80 65 86 113 97 63 71 99 121 146 121 100 105 85 90 130 161 152 150 169
37 35 201 269 287 235 193 41 162 264 222 234 224 182 156 132 14 6 -1 -15 37 22 29 70 122 108 90 91 79 89 40 60 112 128 102 106 124 122 123 143 154 148 120 132
-1 2 79 179 295 253 178 125 229 144 209 206 160 218 201 180 149 111 96 101 39 35 35 38 86 82 54 54 70 85 62 27 54 63 69 94 117 148 158 166 188 158 157 149
76 13 -6 80 185 140 119 272 235 216 266 155 179 219 240 193 80 3 66 60 -43 -62 6 28 62 82 53 74 82 74 93 74 72 74 72 88 100 88 79 119 144 151 137 153
126 155 234 83 98 155 191 228 191 211 205 301 232 145 87 150 213 68 24 51 68 -49 16 16 40 93 73 95 93 93 84 95 78 79 105 82 75 44 69 150 114 119 158 208
73 102 168 211 184 230 266 275 228 283 207 61 211 258 163 58 122 175 49 40 30 16 48 36 32 90 81 130 117 94 98 90 91 94 85 81 73 83 103 140 121 108 131 173
31 56 67 80 73 101 118 137 225 196 243 246 132 75 81 17 27 58 67 -26 9 3 29 69 73 114 137 178 198 191 150 106 79 71 67 72 73 77 90 79 78 69 83 105
27 32 43 67 41 55 84 87 98 154 146 233 222 245 193 45 -88 -61 -11 -24 8 20 71 96 165 195 229 245 276 305 293 230 205 173 133 110 92 83 64 60 58 127 140 220

GFSCGP_con_3kmhel_039.txt.gz
Helicity
42 70 39 14 -41 19 20 12 13 33 49 22 -28 29 -5 64 46 26 70 92 83 87 77 86 31 4 -18 -8 -14 -22 -20 -20 -23 -17 -14 -5 -5 -10 -7 -10 -5 14 -2 -5
81 75 11 26 26 31 45 30 5 15 42 7 3 -19 -12 64 54 20 54 65 77 57 90 49 63 23 0 2 -5 -19 -21 -13 -5 -16 -8 -15 -15 -11 -5 -7 22 8 0 1
98 26 -14 6 3 29 38 7 13 32 9 45 20 33 14 30 55 25 30 32 37 86 130 153 97 39 12 10 19 -5 -11 -9 -13 -12 -22 -4 -8 3 -10 -16 4 10 7 4
-8 -9 54 6 0 -25 -39 24 17 10 13 47 50 -13 5 -9 64 28 20 29 29 47 50 130 117 58 38 41 34 -1 13 -2 -11 -13 -25 -4 1 -1 -3 -3 4 20 25 8
42 25 45 26 22 -3 -14 25 34 33 43 46 29 47 10 68 24 47 18 40 21 51 58 134 140 126 58 44 38 16 21 -18 -14 -1 3 4 -7 -11 -16 -20 -7 13 74 14
9 27 33 11 7 6 11 40 24 30 45 48 8 17 -21 -19 2 55 51 15 51 22 56 85 112 101 46 37 33 15 46 37 21 24 4 7 3 -21 -20 11 28 25 17 46
41 16 32 29 27 16 25 -4 69 60 56 96 17 27 -38 -31 -3 30 20 45 41 46 67 42 71 76 77 45 73 50 66 41 40 49 27 30 8 -7 -8 22 -1 27 25 28
94 86 18 55 -15 28 14 -31 11 57 27 19 -16 8 -31 -26 43 45 49 37 46 55 30 44 61 101 109 119 147 97 135 91 80 86 75 57 42 2 -7 21 24 28 21 33
94 28 20 32 29 -7 89 -45 -41 9 43 26 55 29 8 21 26 43 39 11 18 75 62 38 81 82 122 113 166 171 193 163 134 142 122 103 80 37 33 26 44 51 40 6
74 31 20 -10 39 31 48 38 44 16 6 19 16 21 65 38 41 30 30 21 -5 34 79 37 52 71 105 99 139 177 190 236 201 202 181 150 136 104 72 70 62 74 48 40
76 48 46 47 119 101 66 61 34 22 7 -2 25 10 -8 63 33 30 16 -9 -32 3 77 31 41 57 101 71 62 113 133 163 166 163 219 197 173 138 96 97 112 101 102 91
40 76 122 52 60 29 38 34 66 53 -38 -24 32 31 105 35 54 38 -4 4 -21 27 64 30 42 25 56 70 60 72 90 87 133 116 151 197 217 207 196 131 117 109 115 124
217 175 203 123 73 52 35 37 33 41 30 -19 22 43 56 148 77 29 -11 13 19 32 35 23 43 55 50 53 62 68 85 76 60 72 103 134 172 200 205 222 185 136 112 121
345 303 204 163 131 91 73 35 31 40 77 48 23 38 63 44 94 77 43 51 58 94 109 94 57 50 58 37 74 83 52 51 47 63 46 66 122 181 201 221 209 188 175 161
270 301 195 128 82 90 47 45 41 58 46 49 34 31 40 50 40 17 24 64 88 81 117 103 113 86 91 79 106 188 76 73 46 92 89 87 73 81 127 184 204 181 176 162
309 320 255 269 97 81 242 103 31 41 45 39 43 43 32 42 42 21 23 26 47 77 82 40 50 92 100 78 74 83 119 45 82 82 99 100 110 79 71 117 193 197 202 190
488 395 238 251 150 107 232 209 105 42 61 37 57 42 41 71 73 84 48 51 48 62 48 36 66 92 65 98 95 70 49 45 37 97 123 117 147 150 119 105 138 185 241 268
451 536 432 305 267 204 153 60 90 116 124 81 73 81 75 88 105 60 45 79 95 99 69 59 50 40 78 73 34 33 62 85 55 79 132 171 136 173 178 148 129 160 196 211
148 385 353 354 294 142 72 83 12 88 130 89 121 95 154 121 111 122 66 73 110 81 63 83 100 45 36 38 62 104 74 55 99 81 130 148 176 168 211 186 176 197 199 203
79 102 350 319 392 302 68 213 166 111 188 54 40 34 28 46 93 15 36 88 132 124 117 148 110 129 144 120 90 75 71 84 138 156 144 165 180 188 217 181 177 196 194 183
20 163 205 309 389 207 157 120 76 172 212 55 63 117 85 135 131 149 180 184 136 79 69 106 124 176 172 157 114 101 93 102 109 131 110 147 173 210 192 174 151 164 170 124
-3 54 180 191 247 358 140 73 143 157 230 370 376 306 322 329 306 256 188 166 135 95 26 30 49 99 106 145 137 101 102 92 116 122 135 133 155 160 159 144 148 150 148 131
179 103 88 92 102 70 128 118 115 55 137 313 399 364 301 292 270 192 93 94 150 101 30 -21 49 43 42 95 111 99 66 87 120 151 149 125 142 136 130 151 139 122 130 119
49 36 137 168 155 179 185 144 187 163 100 144 152 213 207 180 247 191 106 53 87 158 114 49 48 46 57 49 82 98 88 85 116 148 132 127 129 129 128 109 113 104 95 126
108 155 91 97 106 169 179 217 156 197 98 124 155 89 105 117 96 193 167 92 93 119 86 84 90 73 77 63 74 129 116 94 88 93 104 109 102 113 114 95 89 80 77 97
9 14 49 98 58 70 81 73 80 97 146 160 72 50 107 133 88 124 133 69 94 100 62 86 81 100 91 69 133 202 199 117 111 100 88 79 80 97 83 83 74 128 121 127

GFSCGP_con_3kmhel_042.txt.gz
Helicity
17 49 37 -6 -51 -45 16 7 9 -9 -16 26 -13 -9 78 84 73 55 166 97 151 90 52 127 29 41 75 155 151 118 77 52 113 32 -3 -5 -5 -15 -18 -23 -17 61 30 17
57 17 27 -12 31 39 22 16 -16 15 34 10 -5 7 4 111 31 125 172 87 133 65 100 123 93 90 43 176 172 142 85 35 103 91 5 -13 -16 -17 2 -17 -22 53 46 9
66 34 -16 -4 20 23 -8 -5 7 -10 87 95 -23 -24 -8 70 60 40 106 85 135 103 166 178 200 111 121 189 212 166 116 118 118 92 15 -16 -20 -19 -0 2 -6 53 41 21
39 -18 47 -13 -14 -3 -19 -26 6 33 29 96 40 59 16 -3 82 97 52 133 123 141 110 174 196 106 180 200 230 200 146 117 121 31 -3 37 23 7 -3 29 6 63 65 18
35 27 -31 23 -16 -21 -29 -7 5 14 49 34 46 62 48 21 -9 87 61 179 48 115 138 254 250 201 141 194 280 233 167 108 68 40 49 44 29 8 -11 -9 6 17 102 40
12 29 12 24 26 12 11 27 12 14 35 85 47 15 66 20 33 8 57 93 86 115 112 235 277 180 92 168 232 224 176 101 63 48 12 19 41 -0 -10 -2 -22 16 97 74
48 20 19 14 18 14 19 22 66 2 11 18 -77 55 37 -48 103 54 113 30 68 73 130 178 292 209 166 163 224 232 225 146 100 81 48 32 27 36 -25 -14 -4 52 75 113
91 71 -19 49 24 43 -22 -46 35 23 65 56 -0 55 -82 -14 45 25 154 112 47 78 120 160 267 255 213 158 242 240 227 176 125 88 79 44 61 39 1 -32 28 3 40 84
106 55 55 24 32 21 66 -60 -41 -5 4 22 21 45 -0 -8 16 36 32 81 100 89 63 168 256 284 256 176 218 264 262 218 171 144 127 89 92 67 48 19 9 45 -2 -1
84 47 23 39 20 30 33 75 56 53 31 1 4 1 162 18 38 11 37 47 95 89 85 180 207 294 306 243 194 219 251 239 198 146 127 127 124 117 72 62 22 27 56 4
53 48 44 14 47 67 78 47 53 33 30 26 22 4 7 163 48 44 59 18 9 69 111 119 173 238 283 264 208 178 172 206 174 126 119 108 103 96 85 72 68 49 46 69
92 78 65 74 31 40 49 60 46 104 50 31 8 19 108 96 140 65 43 102 33 44 119 121 134 172 242 263 209 180 157 142 175 162 142 148 147 126 109 108 109 109 94 76
209 156 138 96 70 116 28 48 53 40 43 20 67 29 107 177 127 62 34 46 89 40 71 126 111 120 177 242 216 187 179 167 149 123 117 103 111 141 158 166 171 178 176 166
107 191 202 209 113 77 111 36 42 39 87 48 32 59 89 150 124 49 67 44 74 82 48 142 88 107 123 218 256 226 209 170 159 163 141 124 116 123 133 148 173 203 254 235
215 203 182 84 62 31 80 52 30 61 38 54 18 29 97 76 120 103 50 24 21 117 188 176 73 171 151 191 268 210 187 244 214 183 208 183 137 126 113 115 136 155 171 219
364 273 289 214 99 97 168 34 35 30 27 28 30 15 142 92 91 128 113 163 196 170 127 108 109 115 132 135 188 197 171 206 236 262 264 231 191 159 145 119 138 124 129 160
398 326 450 435 204 168 122 139 64 37 43 28 36 -3 181 97 58 115 147 76 116 151 209 182 139 90 90 123 155 161 167 211 183 203 227 267 276 239 210 173 122 139 149 148
451 586 506 355 314 355 98 79 125 129 38 39 39 37 35 81 60 92 95 68 51 94 107 94 73 108 170 116 96 202 211 166 125 135 131 184 277 330 290 221 190 164 166 185
145 406 458 330 288 167 90 58 108 126 122 75 56 46 56 172 134 159 110 95 116 95 87 87 72 61 33 54 58 125 88 119 124 65 75 139 207 259 342 353 259 205 199 211
78 159 409 382 338 359 85 13 69 83 128 125 135 182 132 121 164 156 266 255 211 192 164 160 166 179 100 183 122 132 118 103 100 92 95 168 177 232 288 355 344 281 232 212
20 205 264 374 411 163 242 314 226 200 258 285 216 148 112 110 202 271 329 318 345 248 182 138 123 162 211 174 136 157 177 87 61 101 147 170 194 203 234 270 323 316 248 215
16 -37 167 330 374 329 56 170 245 207 132 299 367 389 379 335 308 313 340 284 232 212 186 163 73 68 103 158 146 126 130 144 107 119 174 198 197 211 190 228 272 287 230 183
100 66 144 134 232 95 118 88 119 106 130 166 311 414 439 485 439 447 373 261 185 123 101 205 130 11 55 93 94 120 109 94 93 138 179 211 205 192 149 172 211 232 191 155
132 190 114 137 147 225 120 90 84 99 164 151 217 317 363 500 555 511 296 195 170 144 184 211 317 121 131 88 61 82 108 127 119 115 162 205 212 197 173 160 193 182 174 143
161 152 196 221 169 143 142 188 173 125 158 186 143 232 296 374 399 282 225 149 142 158 259 282 249 124 191 153 82 73 79 84 133 133 170 186 166 155 143 136 174 144 130 117
145 173 171 203 225 158 261 265 259 156 93 61 70 141 141 167 140 131 88 159 139 119 281 290 99 53 93 97 109 124 155 142 124 143 137 128 113 117 112 116 118 308 301 252

GFSCGP_con_3kmhel_045.txt.gz
Helicity
60 123 1 2 22 108 89 20 -16 -20 -8 23 -4 -1 339 35 229 366 160 125 71 8 122 171 82 33 183 258 298 212 219 141 71 48 27 -13 -17 -34 -30 -24 21 82 47 26
139 14 19 69 93 138 70 21 16 24 24 20 35 -37 137 95 505 597 1 -40 122 51 3 137 153 156 261 313 300 263 277 202 123 76 32 18 -17 -36 -26 -23 18 65 44 22
128 104 49 54 64 101 88 46 -1 -42 0 42 135 30 -35 270 477 367 269 -4 61 225 111 165 176 179 273 332 317 291 277 260 199 147 74 -9 -31 -31 -32 -17 -15 55 66 54
61 24 93 -1 17 50 68 7 -18 -37 -7 151 155 69 70 146 217 381 138 211 168 152 171 234 226 208 274 322 307 270 273 267 217 180 81 35 15 0 -1 32 1 43 89 58
82 125 -58 68 -10 4 41 54 15 13 22 22 86 97 -7 -37 161 200 360 426 93 107 211 331 331 273 275 323 335 286 266 232 205 151 116 66 15 -18 -24 7 47 58 51 65
49 98 47 -43 -4 18 35 44 30 51 53 74 52 109 18 110 85 285 295 245 62 152 229 250 405 297 285 346 359 316 250 218 213 176 130 67 28 9 -18 -9 9 33 49 55
68 54 37 57 -26 52 40 60 90 87 81 68 22 96 12 41 -17 189 256 274 266 333 204 199 319 280 303 420 358 357 288 199 203 171 121 80 63 38 21 0 21 23 73 79
87 84 56 32 41 80 39 -18 122 128 171 23 60 84 0 -8 7 -20 166 376 383 296 45 267 360 366 300 382 451 312 287 229 187 180 140 91 40 28 36 31 12 49 95 135
111 19 58 15 59 22 104 61 37 110 76 126 126 50 12 18 -42 16 74 268 326 233 111 264 307 383 351 337 459 409 288 229 194 166 141 104 100 77 67 29 -8 -13 34 101
22 116 43 33 -15 51 52 161 88 77 88 122 88 92 1 54 -48 -15 66 82 279 254 328 318 302 316 409 308 379 466 347 280 232 164 131 110 114 102 83 80 28 8 18 29
245 -61 88 42 64 -18 96 148 123 84 48 78 85 8 76 173 72 -29 36 46 126 252 318 330 306 252 379 310 307 387 400 295 208 157 98 60 51 64 97 96 66 46 15 31
509 38 -20 76 70 50 50 78 121 122 79 14 -30 -119 58 -1 240 60 -128 -39 112 228 297 335 306 191 260 278 271 316 361 347 257 193 130 90 75 73 80 83 66 57 36 36
448 275 62 -44 -1 141 27 100 49 138 140 49 -29 -170 -21 10 43 31 -54 -55 108 226 302 353 275 171 236 264 279 265 270 306 292 201 146 100 83 77 71 79 86 73 70 31
482 360 281 64 51 25 89 85 93 73 137 65 -45 -48 6 90 135 139 76 113 158 210 308 314 247 184 194 260 260 243 238 232 236 226 178 150 135 124 128 117 103 117 105 95
497 501 388 97 77 104 55 90 127 96 77 95 42 28 25 52 159 101 86 127 142 221 174 282 217 191 191 252 226 278 264 242 223 202 198 207 180 161 129 130 128 128 149 159
787 552 475 31 50 15 61 104 129 121 75 8 34 48 85 83 166 230 237 257 280 267 219 281 269 242 250 273 259 280 280 244 244 237 242 192 180 178 160 137 144 137 148 152
1088 631 531 50 32 145 17 184 137 71 98 67 54 24 168 177 229 265 304 341 379 368 355 322 297 213 299 254 251 247 237 273 273 292 288 283 243 219 185 154 149 154 150 154
1222 955 524 253 119 202 71 37 107 64 96 83 12 38 223 148 281 358 288 262 272 327 351 363 353 292 259 189 146 188 269 315 244 251 310 303 358 340 269 210 188 171 155 159
605 811 571 381 188 189 147 136 140 175 370 279 113 61 180 371 565 637 524 492 473 367 322 280 241 256 271 278 153 157 155 255 332 251 322 313 360 387 384 347 311 239 184 157
293 409 514 423 383 297 334 314 297 147 337 376 451 600 368 427 591 466 395 453 524 470 415 409 319 203 230 199 192 138 184 178 176 233 222 312 296 320 355 372 396 400 350 263
291 468 527 556 438 244 524 285 137 235 118 224 567 743 700 843 679 590 452 490 409 378 423 401 410 362 315 141 143 222 189 198 125 140 216 216 234 269 305 337 369 404 404 353
133 284 398 300 515 380 351 300 430 325 121 151 429 594 750 669 693 702 695 539 491 417 356 328 307 315 297 215 112 149 153 165 151 80 162 190 237 239 303 331 344 364 366 343
213 51 174 291 233 88 2 446 155 80 153 215 255 390 396 484 553 519 584 487 420 417 340 286 283 248 234 184 92 71 76 56 46 98 94 142 195 213 278 283 284 307 311 289
93 -1 50 43 150 138 163 33 88 140 296 107 140 268 335 346 409 421 393 376 383 349 346 350 357 386 212 147 157 147 114 37 40 80 101 116 187 242 257 269 247 223 257 254
-82 -27 -4 70 39 16 51 66 82 84 190 201 212 225 238 313 274 265 293 266 289 308 362 382 358 369 291 137 128 139 132 87 114 89 89 121 192 236 256 309 291 210 208 225
-25 -3 -59 -61 94 98 161 36 18 14 108 133 164 232 291 141 201 149 180 178 193 280 350 354 316 347 327 73 42 34 37 80 113 85 77 122 171 204 257 308 355 439 363 330

GFSCGP_con_3kmhel_048.txt.gz
Helicity
157 227 124 37 141 140 172 164 128 79 9 100 113 113 254 380 241 174 94 81 51 59 34 -36 -45 -57 -33 79 86 178 174 84 59 56 28 -4 -18 -15 12 28 12 8 20 18
246 127 57 151 140 169 140 159 116 21 9 90 80 81 274 363 331 273 171 38 60 96 95 47 -5 -93 -55 78 148 194 221 176 80 68 28 26 2 -35 -28 3 9 45 28 26
174 129 83 106 123 161 149 127 26 -47 -11 39 78 109 163 176 261 216 164 67 97 168 221 186 60 29 -9 106 218 254 242 207 134 60 29 26 -8 -14 -59 -37 3 33 43 49
119 26 73 120 70 132 113 40 2 -37 45 -3 84 51 90 190 300 164 108 121 134 126 245 217 156 84 113 212 265 315 280 222 153 122 47 18 21 9 -31 -40 14 36 42 37
116 81 40 82 81 103 54 63 30 -47 5 31 1 126 80 282 339 143 127 81 76 163 212 231 289 210 264 289 314 346 323 249 205 154 104 62 19 -7 -31 -60 -41 9 34 54
75 101 93 12 38 44 61 78 69 -9 -14 66 27 94 38 197 252 181 61 129 91 53 120 138 302 355 362 373 399 362 330 256 219 177 128 105 58 1 -20 -41 -30 -16 23 41
89 70 64 75 61 35 30 136 114 6 53 63 9 85 -3 79 161 304 149 86 107 26 69 167 220 286 346 383 383 354 314 248 216 192 161 123 89 40 19 -7 -6 7 14 32
193 126 92 52 95 71 15 90 144 123 96 114 -3 101 -36 7 128 256 221 281 263 80 97 101 242 297 339 436 406 361 268 247 237 193 162 141 112 43 13 0 5 19 47 38
336 136 167 81 46 69 60 60 68 100 81 94 52 71 32 -3 56 15 190 244 115 10 152 72 227 261 322 415 466 411 304 232 218 196 150 128 122 78 39 -2 -10 -3 21 39
165 126 142 58 52 57 79 61 134 159 102 162 64 84 75 30 -58 103 119 218 217 41 106 88 252 225 266 405 437 457 340 269 225 163 140 136 135 95 46 17 9 13 13 30
223 170 193 28 96 27 131 97 127 145 101 75 12 -43 34 45 -38 -11 88 98 145 130 194 88 226 192 260 370 368 390 349 235 183 182 164 120 77 71 81 62 38 12 3 32
337 215 83 65 62 101 75 99 120 107 166 139 16 -197 71 15 73 69 68 88 91 180 296 142 165 194 195 309 315 296 336 255 198 180 134 105 91 77 72 80 58 34 16 -13
85 301 154 104 -121 15 79 69 120 162 175 156 45 3 -5 40 -38 16 -1 234 127 61 264 226 138 176 176 269 290 251 298 271 222 177 152 119 95 87 69 64 69 46 30 4
-68 208 247 221 312 272 64 88 29 137 177 135 45 -8 2 -4 41 -3 117 181 226 85 217 236 227 176 170 217 199 201 236 241 241 196 154 137 117 102 98 85 70 74 59 38
-31 299 295 264 460 462 349 160 46 111 126 123 8 -47 -81 -35 77 166 85 156 144 175 227 283 251 172 121 149 136 149 189 234 254 234 194 166 166 163 137 107 95 78 85 71
-59 411 523 324 247 249 283 175 166 34 101 174 38 41 -39 -15 13 113 110 137 132 174 221 247 273 251 149 140 167 154 176 188 217 219 226 201 169 170 180 164 142 128 123 124
98 411 418 301 298 228 194 301 152 77 130 129 78 43 43 127 294 313 326 279 189 293 209 198 216 231 189 147 190 155 166 204 194 172 173 160 155 153 155 160 135 125 124 113
408 691 516 381 430 288 213 375 376 395 330 296 241 174 52 184 366 610 667 574 534 491 418 349 266 265 198 106 110 95 140 185 223 190 184 180 170 148 118 116 105 90 89 108
157 733 738 468 439 288 405 505 498 536 442 527 368 93 182 446 744 842 848 762 740 790 755 657 493 370 322 241 130 161 192 202 220 150 190 245 253 219 176 146 142 111 88 72
133 438 716 561 461 387 377 557 610 259 560 722 751 650 464 372 765 711 709 699 740 684 583 572 588 592 571 471 271 227 142 196 177 133 171 211 304 295 257 251 243 244 208 160
229 770 749 636 433 307 600 581 355 433 415 438 851 796 790 696 757 752 592 596 554 561 536 485 503 468 460 412 337 237 180 169 109 177 189 259 345 349 282 347 338 314 299 261
342 417 774 854 485 447 432 677 441 529 298 536 779 845 740 716 742 765 776 651 630 640 587 540 469 484 427 315 250 271 243 174 110 129 154 199 242 272 274 287 292 290 293 282
78 233 470 469 465 253 174 609 584 198 176 368 658 856 849 520 629 647 668 645 634 613 618 551 469 433 381 268 231 243 266 237 193 112 79 91 151 220 252 256 255 277 279 270
94 76 175 473 149 228 232 304 427 135 179 292 357 613 588 682 502 441 409 510 601 603 598 509 449 452 433 270 139 127 141 152 160 181 162 122 108 137 180 207 229 253 273 256
41 -28 61 303 176 134 94 134 212 217 95 215 219 288 358 422 594 394 368 390 441 486 486 489 468 410 375 336 214 141 89 39 74 96 104 103 88 100 158 292 288 251 265 237
94 42 31 128 149 208 199 146 100 71 112 199 173 352 270 233 291 348 243 232 309 376 406 433 347 296 298 271 238 193 103 76 43 71 81 98 112 130 244 331 332 414 385 340